Погода в Кичкетане

Россия / Республика Татарстан     56°04′22″N   52°50′29″E
темп.,
°C
ветер,
м/с
пор.,
м/с
влажн.,
%
обл.,
%
осадки,
мм/ч
давл.,
гПа
погр.,
м
29 января, сб
сб2900:00−10в2596100 0.1 1020137
03:00−12всв2296100 0.1 101926
06:00−14всв2296100 0.0 101839
09:00−12в2493100 0.0 1017118
12:00−10юв239088 0.0 1016151
15:00−11юв229677 0.0 101535
18:00−16вюв2299100 0.0 101511
21:00−18ююв119999 0.0 10149
30 января, вс
вс3000:00−19юв11100100 0.0 101310
03:00−14юв2396100 0.0 101289
06:00−11вюв369695 0.2 1011178
09:00−10юв379682 0.6 1010223
12:00−7ююв369496 0.3 1009254
15:00−6юв369696 0.4 1009227
18:00−8вюв249871 0.3 100967
21:00−12всв229992 0.4 100911
31 января, пн
пн3100:00−13всв229993 0.1 100911
03:00−10всв119777 0.2 100914
06:00−10в119778 0.1 101013
09:00−8ю229777 0.3 101166
12:00−5ююз479594 0.1 1012408
15:00−8ююв369588 0.2 101388
18:00−9юв3996100 0.0 1014182
21:00−5юв51296100 0.9 1013467
1 февраля, вт
вт100:00−3ююв61396100 1.6 1012555
03:00−1ю71495100 2.9 1011727
06:00−1ю71588100 0.1 1011773
09:00−2ю81696100 0.3 1011871
12:000ю91690100 0.4 1010976
15:000ю81591100 0.6 1009860
18:00−1ю81591100 0.1 1009705
21:00−2ю7159198 0.2 1009697
2 февраля, ср
ср200:00−2ююз81493100 0.3 1010819
03:00−4ююз71289100 0.5 1012724
06:00−6ююз6129099 0.1 1014480
09:00−7ююз51292100 0.1 1016498
12:00−6ююз5119299 0.0 1017537
15:00−5ю479292 0.0 1018282
18:00−7ююв41195100 0.0 1019257
21:00−2ю61494100 0.4 1018564